This is the latest recevied weather packets stored in our database for station/object EA1GHG-11. If no packets are shown the sender has not sent any weather packets the latest 10 day(s).
| Time | Temp. | Humidity | Pressure | Rain* | Wind** | Luminosity | Snow |
|---|---|---|---|---|---|---|---|
| 1778070121 | 16.67° C | 100% | 1017.9 hPa | - | - | - | - |
| 1778069521 | 18.33° C | 100% | 1018 hPa | - | - | - | - |
| 1778068021 | 18.33° C | 100% | 1018.4 hPa | - | - | - | - |
| 1778066521 | 16.67° C | 100% | 1018.6 hPa | - | - | - | - |
| 1778065021 | 16.67° C | 100% | 1018.6 hPa | - | - | - | - |
| 1778063521 | 15° C | 100% | 1018.9 hPa | - | - | - | - |
| 1778062021 | 13.89° C | 100% | 1019 hPa | - | - | - | - |
| 1778060521 | 13.89° C | 100% | 1019.1 hPa | - | - | - | - |
| 1778059021 | 16.67° C | 100% | 1019 hPa | - | - | - | - |
| 1778057521 | 15° C | 100% | 1019 hPa | - | - | - | - |
| 1778056021 | 12.78° C | 100% | 1019 hPa | - | - | - | - |
| 1778054520 | 12.78° C | 100% | 1019 hPa | - | - | - | - |
| 1778053020 | 10.56° C | 100% | 1019.2 hPa | - | - | - | - |
| 1778051520 | 9.44° C | 100% | 1019.2 hPa | - | - | - | - |
| 1778050056 | 8.33° C | 100% | 1019.1 hPa | - | - | - | - |
| 1778050020 | 8.33° C | 100% | 1019.1 hPa | - | - | - | - |
| 1778048519 | 7.22° C | 100% | 1019 hPa | - | - | - | - |
| 1778047922 | 5.56° C | 100% | 1019.1 hPa | - | - | - | - |
| 1778046422 | 6.11° C | 100% | 1019 hPa | - | - | - | - |
| 1778044922 | 5.56° C | 100% | 1018.9 hPa | - | - | - | - |
| 1778043422 | 5.56° C | 100% | 1019 hPa | - | - | - | - |
| 1778041955 | 6.11° C | 100% | 1018.9 hPa | - | - | - | - |
| 1778041922 | 6.11° C | 100% | 1018.9 hPa | - | - | - | - |
| 1778040422 | 6.67° C | 100% | 1018.8 hPa | - | - | - | - |
| 1778038921 | 5.56° C | 100% | 1019.1 hPa | - | - | - | - |
* Rain since midnight (hover to see other rain measurements)
** Current wind speed in m/s (hover to see current wind gust speed)